Weather History for KGXA - March, 2013

Change the Weather History Date:

Wednesday, March 6, 2013

  Actual Average (KPMD) Record (KPMD)
Temperature  
Mean Temperature 46 °F 52 °F  
Max Temperature 59 °F 65 °F 86 °F (1972)
Min Temperature 34 °F 39 °F 23 °F (1967)
Degree Days  
Heating Degree Days 18 13  
Month to date heating degree days 81  
Since 1 July heating degree days 2326  
Cooling Degree Days 0 0  
Month to date cooling degree days 0  
Year to date cooling degree days 0  
Moisture  
Dew Point 34 °F    
Average Humidity 67    
Maximum Humidity 90    
Minimum Humidity 35    
Precipitation  
Precipitation 0.00 in 0.06 in 0.55 in (1980)
Month to date precipitation 0.45  
Year to date precipitation 3.74  
Snow  
Snow 0.00 in - T in (1958)
Month to date snowfall  
Since 1 July snowfall  
Snow Depth -    
Sea Level Pressure  
Sea Level Pressure 30.03 in    
Wind  
Wind Speed 9 mph (WSW)    
Max Wind Speed 28 mph    
Max Gust Speed 37 mph    
Visibility 10 miles    
Events Rain    
T = Trace of Precipitation, MM = Missing Value Source: NWS Daily Summary

Daily Weather History Graph

Daily Weather History Graph

Search for Another Location

Airport or City:

Trip Planner

Search our weather history database for the weather conditions in past years. The results will help you decide how hot, cold, wet, or windy it might be!

Date:

Astronomy

Mar. 06, 2013 Rise Set
Actual Time 6:12 AM PST 5:51 PM PST
Civil Twilight 5:47 AM PST 6:16 PM PST
Nautical Twilight 5:18 AM PST 6:45 PM PST
Astronomical Twilight 4:49 AM PST 7:14 PM PST
Moon 2:15 AM PST (3/6) 12:48 PM PST (3/6)
Length of Visible Light 12h 28m
Length of Day
11h 38m
Waning Crescent, 29% of the Moon is Illuminated
Mar 6
Waning Crescent
Mar 11
New
Mar 19
First Quarter
Mar 27
Full
Apr 2
Last Quarter

Hourly Weather History & Observations

Time (PST) Temp. Windchill Dew Point Humidity Pressure Visibility Wind Dir Wind Speed Gust Speed Precip Events Conditions
12:55 AM 37.9 °F 34.4 °F 33.4 °F 84% 30.01 in 10.0 mi ESE 4.6 mph - N/A   Clear
1:55 AM 37.4 °F 34.9 °F 34.0 °F 87% 30.00 in 7.0 mi East 3.5 mph - N/A   Clear
2:55 AM 34.7 °F 31.8 °F 31.6 °F 89% 30.01 in 7.0 mi South 3.5 mph - N/A   Clear
3:55 AM 36.5 °F - 32.7 °F 86% 30.04 in 10.0 mi Calm Calm - N/A   Clear
4:55 AM 34.7 °F 29.6 °F 31.8 °F 89% 30.06 in 10.0 mi SSE 5.8 mph - N/A   Partly Cloudy
5:55 AM 34.3 °F 30.2 °F 31.3 °F 89% 30.08 in 10.0 mi South 4.6 mph - N/A   Clear
6:55 AM 37.0 °F 32.4 °F 31.8 °F 81% 30.09 in 10.0 mi SSE 5.8 mph - N/A   Clear
7:55 AM 47.1 °F - 30.9 °F 53% 30.09 in 10.0 mi Variable 2.3 mph - N/A   Clear
8:55 AM 49.5 °F - 32.9 °F 53% 30.10 in 10.0 mi WNW 9.2 mph - N/A   Clear
9:55 AM 55.2 °F - 34.3 °F 45% 30.08 in 10.0 mi West 16.1 mph 20.7 mph N/A   Partly Cloudy
10:55 AM 57.4 °F - 33.1 °F 40% 30.06 in 10.0 mi WNW 19.6 mph 26.5 mph N/A   Clear
11:55 AM 59.7 °F - 31.6 °F 35% 30.04 in 9.0 mi West 21.9 mph 34.5 mph N/A   Clear
12:55 PM 59.0 °F - 33.8 °F 39% 30.04 in 10.0 mi West 24.2 mph 34.5 mph N/A   Clear
1:55 PM 57.7 °F - 33.8 °F 41% 30.02 in 10.0 mi WNW 26.5 mph 34.5 mph N/A   Clear
2:55 PM 57.9 °F - 33.8 °F 40% 30.02 in 10.0 mi West 27.6 mph 36.8 mph N/A   Partly Cloudy
3:55 PM 57.0 °F - 33.3 °F 41% 30.02 in 10.0 mi West 18.4 mph 27.6 mph N/A   Clear
4:55 PM 53.2 °F - 35.4 °F 51% 30.03 in 10.0 mi WNW 23.0 mph 28.8 mph N/A   Partly Cloudy
5:55 PM 50.0 °F - 36.1 °F 59% 30.05 in 10.0 mi WNW 19.6 mph 27.6 mph N/A   Clear
6:55 PM 47.7 °F - 36.9 °F 66% 30.06 in 10.0 mi WNW 13.8 mph - N/A   Clear
7:55 PM 44.8 °F 40.4 °F 37.6 °F 76% 30.02 in 10.0 mi WNW 8.1 mph - N/A   Clear
8:55 PM 45.1 °F 39.5 °F 37.2 °F 74% 30.01 in 10.0 mi West 11.5 mph - N/A   Clear
9:55 PM 42.3 °F 37.9 °F 36.0 °F 78% 30.00 in 10.0 mi SSW 6.9 mph - N/A   Clear
10:55 PM 41.9 °F - 37.4 °F 84% 29.99 in 10.0 mi Variable 1.2 mph - N/A   Clear
10:58 PM 41.0 °F - 37.4 °F 87% 29.99 in 10.0 mi WSW 1.2 mph - N/A Rain Light Rain
11:13 PM 41.0 °F 38.0 °F 35.6 °F 81% 30.00 in 10.0 mi SE 4.6 mph - N/A   Clear
11:55 PM 36.7 °F 34.1 °F 34.0 °F 90% 29.99 in 10.0 mi East 3.5 mph - N/A   Partly Cloudy